Weather in Moskovskoe

Russia / Stavropol Krai     45°17′05″N   41°55′07″E
temp.,
°C
wind,
m/s
gust,
m/s
humid.,
%
clouds,
%
prec.,
mm/h
press.,
hPa
HPBL,
m
13 may, thu
thu1300:00+10ese35871 0.0 101376
03:00+9se34820 0.0 101366
06:00+11se36830 0.0 1013113
09:00+18sse22640 0.0 1013375
12:00+22e33555 0.0 1013743
15:00+24ese55525 0.0 1013968
18:00+21ese48716 0.0 1013271
21:00+16se41178100 0.0 1014189
14 may, fri
fri1400:00+14ese412800 0.0 1013211
03:00+14se513765 0.0 1012217
06:00+14se49835 0.0 1013148
09:00+21se56675 0.0 1012279
12:00+26ese45555 0.0 1012478
15:00+27ese67583 0.0 1011675
18:00+23ese59720 0.0 1011283
21:00+19se49773 0.0 1011129
15 may, sat
sat1500:00+17sse337980 0.0 101142
03:00+17sw2280100 0.0 101213
06:00+17wsw38945 0.0 1013196
09:00+20w568761 0.0 1014423
12:00+23wnw447845 0.0 1014744
15:00+25nnw347234 0.1 1013994
18:00+24nne3476100 0.0 1013251
21:00+20nne1185100 0.0 101311
16 may, sun
sun1600:00+19ne118694 0.0 101111
03:00+17ese229099 0.0 101122
06:00+19ese228697 0.0 101042
09:00+23ese3470100 0.0 1010418
12:00+25e455894 0.0 1009796
15:00+26e575687 0.0 10071084
18:00+23ese386785 0.0 1006200
21:00+20ese7164776 0.0 1006423
17 may, mon
mon1700:00+17ese71456100 0.0 1005297
03:00+15ese61262100 0.0 1005225
06:00+15se497369 0.0 1005165
09:00+21se45625 0.0 1006357
12:00+26ese33575 0.0 1006856
15:00+27ese2254100 0.0 10061319
18:00+18wnw71190100 6.9 1010335
21:00+16wsw2393100 8.3 101064